Elkins, WV

9:17 PM EDT on April 25, 2017 (GMT -0400)
Elkins-Randolph County

Weather History for KEKN - October, 2013

Change the Weather History Date:

Thursday, October 31, 2013

  Actual Average Record
Temperature  
Mean Temperature 60 °F 47 °F  
Max Temperature 68 °F 60 °F 77 °F (1927)
Min Temperature 52 °F 34 °F 16 °F (1988)
Degree Days  
Heating Degree Days 5 18  
Month to date heating degree days 365 430  
Since 1 July heating degree days 501 591  
Cooling Degree Days 0 0  
Month to date cooling degree days 10 4  
Year to date cooling degree days 533 475  
Growing Degree Days 9 (Base 50)    
Moisture  
Dew Point 52 °F    
Average Humidity 75    
Maximum Humidity 100    
Minimum Humidity 49    
Precipitation  
Precipitation 0.07 in 0.10 in 1.24 in (1921)
Month to date precipitation 1.31 2.85  
Year to date precipitation 36.59 39.29  
Snow  
Snow 0.00 in - - ()
Month to date snowfall T  
Since 1 September snowfall T  
Snow Depth 0.00 in    
Sea Level Pressure  
Sea Level Pressure 29.99 in    
Wind  
Wind Speed 4 mph (South)    
Max Wind Speed 17 mph    
Max Gust Speed 28 mph    
Visibility 8 miles    
Events Rain    
T = Trace of Precipitation, MM = Missing Value Source: NWS Daily Summary

Daily Weather History Graph

Daily Weather History Graph

Search for Another Location

Airport or City:

Trip Planner

Search our weather history database for the weather conditions in past years. The results will help you decide how hot, cold, wet, or windy it might be!

Date:

Astronomy

Oct. 31, 2013 Rise Set
Actual Time 7:45 AM EDT 6:19 PM EDT
Civil Twilight 7:18 AM EDT 6:47 PM EDT
Nautical Twilight 6:46 AM EDT 7:18 PM EDT
Astronomical Twilight 6:15 AM EDT 7:49 PM EDT
Moon 4:35 AM EDT (10/31) 4:35 PM EDT (10/31)
Length of Visible Light 11h 29m
Length of Day
10h 33m
Waning Crescent, 10% of the Moon is Illuminated
Oct 31
Waning Crescent
Nov 3
New
Nov 10
First Quarter
Nov 17
Full
Nov 25
Last Quarter

Hourly Weather History & Observations

Time (EDT) Temp. Dew Point Humidity Pressure Visibility Wind Dir Wind Speed Gust Speed Precip Events Conditions
12:51 AM 53.1 °F 52.0 °F 96% 30.16 in 5.0 mi Calm Calm - N/A   Overcast
1:51 AM 54.0 °F 53.1 °F 97% 30.16 in 8.0 mi Calm Calm - N/A   Overcast
2:51 AM 53.1 °F 52.0 °F 96% 30.14 in 8.0 mi Calm Calm - N/A   Mostly Cloudy
3:11 AM 53.6 °F 51.8 °F 94% 30.13 in 2.5 mi Calm Calm - N/A   Mostly Cloudy
3:20 AM 51.8 °F 51.8 °F 100% 30.13 in 4.0 mi Calm Calm - N/A   Mostly Cloudy
3:51 AM 53.1 °F 52.0 °F 96% 30.14 in 5.0 mi Calm Calm - N/A   Overcast
4:51 AM 54.0 °F 52.0 °F 93% 30.10 in 9.0 mi Calm Calm - N/A   Overcast
5:51 AM 54.0 °F 53.1 °F 97% 30.12 in 9.0 mi Calm Calm - N/A   Overcast
6:51 AM 54.0 °F 52.0 °F 93% 30.10 in 10.0 mi Calm Calm - N/A   Overcast
7:51 AM 52.0 °F 51.1 °F 97% 30.11 in 4.0 mi Calm Calm - N/A   Scattered Clouds
8:51 AM 53.1 °F 52.0 °F 96% 30.11 in 6.0 mi Calm Calm - N/A   Mostly Cloudy
9:51 AM 55.0 °F 53.1 °F 93% 30.10 in 9.0 mi Calm Calm - N/A   Mostly Cloudy
10:51 AM 60.1 °F 55.9 °F 86% 30.04 in 10.0 mi Calm Calm - N/A   Overcast
11:51 AM 62.1 °F 55.9 °F 80% 30.01 in 10.0 mi Calm Calm - N/A   Scattered Clouds
12:51 PM 66.9 °F 53.1 °F 61% 29.97 in 10.0 mi Variable 6.9 mph - N/A   Scattered Clouds
1:51 PM 66.9 °F 50.0 °F 54% 29.93 in 10.0 mi SSW 8.1 mph - N/A   Scattered Clouds
2:51 PM 66.9 °F 48.9 °F 52% 29.89 in 10.0 mi SSW 9.2 mph - N/A   Clear
3:51 PM 68.0 °F 48.9 °F 50% 29.88 in 10.0 mi South 10.4 mph 23.0 mph N/A   Mostly Cloudy
4:51 PM 62.1 °F 50.0 °F 65% 29.92 in 10.0 mi SSW 4.6 mph - 0.01 in Rain Light Rain
5:51 PM 57.0 °F 55.0 °F 93% 29.91 in 6.0 mi Calm Calm - 0.05 in Rain Light Rain
6:51 PM 55.0 °F 54.0 °F 96% 29.86 in 9.0 mi SE 3.5 mph - 0.00 in   Overcast
7:51 PM 57.9 °F 52.0 °F 81% 29.84 in 10.0 mi South 3.5 mph - N/A   Overcast
8:51 PM 59.0 °F 51.1 °F 75% 29.81 in 10.0 mi South 6.9 mph - 0.00 in Rain Light Rain
9:51 PM 59.0 °F 52.0 °F 78% 29.77 in 10.0 mi SSE 8.1 mph - 0.00 in Rain Light Rain
10:51 PM 63.0 °F 51.1 °F 65% 29.70 in 10.0 mi South 11.5 mph 18.4 mph 0.01 in   Overcast
11:51 PM 64.0 °F 52.0 °F 65% 29.65 in 10.0 mi SSE 12.7 mph - 0.00 in Rain Light Rain